Location: Al Mulaqqa?ah
(24.1833°N, 32.8833°E)
Time: 19:17:55
(UTC+00:00)

Cosmos 1340 - Pass Details

Date: 26 September 2021
Orbit: 499 x 502 km, 81.2° (Epoch: 15 October)

Event Time Altitude Azimuth Distance (km) Brightness Sun altitude
Rises 16:33:59 0° 348° (NNW) 2,596 6.5 -13.0°
Reaches altitude 10° 16:36:07 10° 344° (NNW) 1,709 5.6 -13.5°
Maximum altitude 16:39:48 57° 265° (W) 591 3.3 -14.3°
Drops below altitude 10° 16:43:28 10° 186° (S) 1,700 5.3 -15.2°
Sets 16:45:36 0° 182° (S) 2,580 6.2 -15.6°
